Location: Carabito
(9.8355°N, 67.9249°W)
Time: 09:52:08
(UTC+00:00)

Palapa 6 Rocket - Pass Details

Date: 23 May 2024
Orbit: 482 x 1187 km, 22.7° (Epoch: 20 June)

Event Time Altitude Azimuth Distance (km) Brightness Sun altitude
Rises 00:54:33 0° 256° (WSW) 3,735 7.7 -29.2°
Reaches altitude 10° 00:57:31 10° 259° (W) 2,674 6.8 -29.9°
Enters shadow 01:03:36 60° 325° (NW) 940 4.0 -31.1°
